OBJECT B

基本信息
目录编号:
64088
目录名称:
OBJECT B
国际标识:
2025-108B
轨道中心:
EARTH
物体状态:
在轨
发射日期:
2025-05-21 UTC
国别:
中国 (CN)
轨道信息
数据来源: 国际轨道数据
星历时间: 2026-09-05T14:58:50+0800
半长轴: 6885.275km
偏心率: 0.000922
轨道倾角: 97.467°
近地点辐角: 93.872°
升交点赤经: 323.197°
平近点角: 266.357°
近地点: 500.789km
远地点: 513.487km
周期: 94.764分钟
每日圈数: 15.195706
详细信息
发射场:
JSC
轨道高度:
LEO
数据来源:
AOE Working Group
参考系:
TEME
时间系统:
UTC
历元类型:
SGP4
2D轨道图
3D轨道图
轨道高度分析图
轨道倾角分析图
轨道综合分析图
查看轨道综合分析图